Regional Weather Roundup
Issued by NWS Sioux Falls, SD

Home | Current Version | Previous Version | Text Only | Print | Product List | Glossary On
Versions: 1 2 3 4 5 6 7 8 9 10 11 12 13 14 15 16 17 18 19 20 21 22 23 24 25 26 27 28 29 30 31 32 33 34 35 36 37 38 39 40 41 42 43 44 45 46 47 48 49 50
000
ASUS43 KFSD 180202
RWRFSD

WEATHER ROUNDUP FOR SE SOUTH DAKOTA/SW MINNESOTA/NW IOWA
NATIONAL WEATHER SERVICE SIOUX FALLS SD
800 PM CST SUN DEC 17 2017

NOTE: "FAIR" INDICATES FEW OR NO CLOUDS BELOW 12,000 FEET WITH NO
SIGNIFICANT WEATHER AND OR OBSTRUCTIONS TO VISIBILITY.


SDZ038>040-050-052>070-180300-
SOUTHEAST SOUTH DAKOTA

CITY           SKY/WX    TMP DP  RH WIND       PRES   REMARKS
BROOKINGS      CLOUDY    33  27  78 S7        29.92F WCI  27
CHAMBERLAIN    CLOUDY    37  33  85 S7        29.90S
HURON          CLOUDY    38  32  79 MISG      29.90S
MADISON        CLOUDY    32  32 100 SW7       29.92F WCI  26
MITCHELL       CLOUDY    37  29  72 S7        29.94S
SIOUX FALLS    CLOUDY    32  29  88 SW3       29.95S
WINNER         FAIR      36  29  75 S12       29.89S
YANKTON        CLEAR     30  26  85 SW5       29.98R WCI  25
$$

MNZ071-072-080-081-089-090-097-098-180300-
SOUTHWEST MINNESOTA

CITY           SKY/WX    TMP DP  RH WIND       PRES   REMARKS
FAIRMONT       CLOUDY    25  22  88 S6        29.98S WCI  18
JACKSON        CLOUDY    23  21  93 CALM      29.97R FOG
LUVERNE        CLOUDY    28  25  86 SW5       29.96S WCI  23
MARSHALL       CLOUDY    29  26  89 S6        29.94F WCI  23
MONTEVIDEO     CLOUDY    28  27  93 S5        29.94S WCI  23
PIPESTONE      CLOUDY    30  27  86 SW5       29.93R WCI  25
REDWOOD FALLS  CLOUDY    29  24  82 S6        29.96S WCI  23
WINDOM           N/A     27  16  63 CALM      29.95S HAZE
WORTHINGTON    CLOUDY    24  24 100 S7        29.95S WCI  16
$$

IAZ001>003-012>014-020>022-031-032-NEZ013-014-SDZ071-180300-
NORTHWEST IOWA

CITY           SKY/WX    TMP DP  RH WIND       PRES   REMARKS
CHEROKEE       CLOUDY    32  28  86 CALM      29.98F
DENISON        PTCLDY    27  25  93 CALM      30.01R FOG
ESTHERVILLE    CLOUDY    24  23  96 S5        29.96F WCI  18
LE MARS        CLOUDY    28  27  93 S3        29.98S
ORANGE CITY    CLOUDY    28  28 100 CALM      29.97R
SHELDON        PTCLDY    23  23 100 CALM      29.95S FOG
SIOUX CITY     MOCLDY    27  25  92 CALM      30.00S
SPENCER        PTCLDY    27  24  89 S3        29.97F
STORM LAKE     CLOUDY    28  27  93 W3        29.97S
$$

ABBREVIATIONS USED IN REMARKS
   TC - TEMPERATURE IN CELSIUS
  WCI - WIND CHILL INDEX
   HX - HEAT INDEX
  VSB - VISIBILITY





USA.gov is the U.S. government's official web portal to all federal, state and local government web resources and services.